{"data":{"norad_id":47374,"epoch":"2026-07-03T05:14:22.689888Z","epoch_age_seconds":6871830,"freshness":"OLD","line1":"1 47374U 21005AB  26184.21831817  .09445617  12470-4  50584-3 0  9994","line2":"2 47374  53.0220 183.2972 0005171 298.2731  61.7794 16.42396893301567","mean_motion":16.42396893,"eccentricity":0.0005171,"inclination_deg":53.022,"raan_deg":183.2972,"arg_perigee_deg":298.2731,"mean_anomaly_deg":61.7794,"bstar":0.00050584,"rev_number":30156,"period_min":87.676736733817,"perigee_km":156.05361753556,"apogee_km":162.81477366605,"semimajor_km":6537.5711956008,"source":"CELESTRAK","updated_at":"2026-07-03T09:00:34.660741Z"}}